STARLINK-33739, 63572

Orbit data source: Space-Track

STARLINK-33739, 63572 is a payload satellite owned by SpaceX/Seattle (US) in LEO that was launched on Mon, 14 Apr 2025 UTC via an FALCON 9 launch vehicle from the Air Force Eastern Test Range (AFETR). Payload-class satellites include a variety of spacecraft equipped with specific instruments for various scientific and technological missions. These include communications satellites like Starlink; space stations such as the ISS; scientific satellites like the Hubble; Earth observation satellites from companies like Planet Labs, Umbra, and HawkEye 360; GPS; miniature CubeSats for education and research; and military/defense satellites.

Loading next visibility...
Identifier
63572, 2025-076D
Orbit
LEO
Country
Flag of USUS
Related business
Manufacturer
SpaceX/Seattle
Mission
Operational Commercial Communications
Bus & Motor
STARLINK V2MO, Unknown motor
Mass
575 kg wet, ~530 kg dry
Launch date (UTC)
2025-04-14 (8 months ago)
Launch vehicle
FALCON 9
Launch site
Air Force Eastern Test Range (AFETR)
Object type
Payload
Rocket body
Debris
Shape & HBR
Box + 2 Pan, 17.7 m
Radar Cross Section
36.964 m², Large (>1 m²)

Expand to show TLE details & history
Last TLE update: 16 hours ago

TLE from 16 hours ago
0 STARLINK-33739
1 63572U 25076D   25348.27617213  .00030164  00000-0  11007-2 0  9999
2 63572  42.9966  84.4038 0000690 118.5786 241.5135 15.27592963 38763
Epoch: 2025-12-14T06:37Z
TLE epoch observation values (Epoch: 2025-12-14T06:37:41.272Z)
Latitude
-0°
Longitude
-98.20958°
Altitude
483.011 km
Speed
7.626 km/s
True Right ascension
05h 37m 36s
True Declination
0° 00' 00"
Sunlit
Object was in full shadow at epoch
Visualization orbit readout
Latitude
Unknown
Longitude
Unknown
Altitude
Unknown
Speed
Unknown
Apparent Right ascension
Unknown
Apparent Declination
Unknown
Sunlit
N/A
Visualization observer readout
Local Sidereal Time
21:24:37
Azimuth
Unknown
Elevation
Unknown
Doppler factor
Unknown
Orbital elements
Apogee altitude
485.43 km
Perigee altitude
484.482 km
Semi-major axis
6,863.093 km
Eccentricity
0.00007
Inclination
42.9966°
RAAN
84.4038°
Arg. of periapsis
118.5786°
True anomaly
241.50655°
Mean anomaly
241.5135°
Eccentric anomaly
241.51003°
Mean motion
3.81736 °/min
Orbital period
94.31 mins
BSTAR
0.0011007
Loading maneuver chart data...
Computing Atmospheric mass density...
Loading historical data...
Loading historical data...
Loading historical data...
Loading historical data...
Loading historical data...
Loading historical data...
Loading historical data...

Documentation

Showing up to 5 results
|